User: anonymous   Login
Location: *
(23.5860°S, 65.4036°W)
Time: 07:07:25
(UTC+00:00)
Language:

Gbstr 26 Del rocket - Orbit

View from above orbital plane
View from above orbital plane
View from above satellite
View from above satellite

Ground track
Ground track

The orbit data is extracted from the following two-line orbital elements,

1 25876U 99041E   19294.11638308 -.00000078  00000-0  27893-4 0  9995
2 25876  51.7641 179.0731 0531232   3.3393 357.0864 14.04366267 34873
Epoch (UTC): 21 October 2019 02:47:35
Eccentricity: 0.0531232
inclination: 51.7641°
perigee height: 493 km
apogee height: 1264 km
right ascension of ascending node: 179.0731°
argument of perigee: 3.3393°
revolutions per day: 14.04366267
mean anomaly at epoch: 357.0864°
orbit number at epoch: 3487

The dashed part of the orbit path shows where the satellite is in the earth's shadow,  

DLR